Terminal Aerodrome Forecast
Issued by NWS

Home | Current Version | Previous Version | Text Only | Print | Product List | Glossary On
Versions: 1 2 3 4 5 6 7 8 9 10 11 12 13 14 15 16 17 18 19 20 21 22 23 24 25 26 27 28 29 30 31 32 33 34 35 36 37 38 39 40 41 42 43 44 45 46 47 48 49 50
000
FTUS41 KCTP 210244 AAA
TAFBFD
TAF AMD
KBFD 210244Z 2103/2124 20003KT P6SM VCSH SCT025 OVC035
     FM210330 20005KT 5SM -SHRA SCT015 OVC020
     FM210530 20003KT 2SM -SHRA BR OVC007
     FM210700 20002KT 1SM BR VCSH OVC003
     FM211700 31006KT P6SM VCSH OVC015=

USA.gov is the U.S. government's official web portal to all federal, state and local government web resources and services.